Location: Newark
(46.7000°N, 60.6000°W)
Time: 03:04:11
(UTC+00:00)

Vanguard 3 - Pass Details

Date: 04 November 2020
Orbit: 508 x 3262 km, 33.3° (Epoch: 26 November)

Event Time Altitude Azimuth Distance (km) Brightness Sun altitude
Rises 06:48:18 0° 215° (SW) 5,071 - -41.1°
Reaches altitude 10° 06:51:36 10° 206° (SSW) 4,433 - -40.6°
Exits shadow 06:58:04 29° 178° (S) 3,714 10.2 -39.6°
Maximum altitude 07:02:58 35° 147° (SSE) 3,768 10.4 -38.8°
Drops below altitude 10° 07:18:42 10° 92° (E) 6,151 12.3 -36.2°
Sets 07:24:19 0° 85° (E) 7,234 13.0 -35.3°
